When you browse on this site, cookies collect data to enhance your experience and personalize the content and advertising you see.
Visit our Privacy Policy to learn more. By continuing to use the site, you agree to this use of cookies and data.
  • în România
  • Lista ţărilor
  • Pe 7 zile
  • Temperatura apei
  • Hartă satelitară
  • Meteo pe hartă
  • Widget-uri
  • user-avatar
    Intrare

    Meteo pe oră la Arrecife

    Astăzi, 22 Aprilie, Luni

    Timp Temperatura Precipitaţii Vânt Presiune Umiditate
    00:00 +8°C° 0 mm 1 m/s 668 mmHg 81%
    01:00 +8°C° 0 mm 1 m/s 668 mmHg 83%
    02:00 +7°C° 0 mm 1 m/s 667 mmHg 85%
    03:00 +7°C° 0 mm 1 m/s 667 mmHg 87%
    04:00 +7°C° 0 mm 1 m/s 667 mmHg 88%
    05:00 +7°C° 0 mm 1 m/s 667 mmHg 89%
    06:00 +6°C° 0 mm 2 m/s 666 mmHg 90%
    07:00 +7°C° 0 mm 2 m/s 667 mmHg 87%
    08:00 +7°C° 0 mm 2 m/s 667 mmHg 83%
    09:00 +8°C° 0 mm 2 m/s 667 mmHg 80%
    10:00 +9°C° 0 mm 2 m/s 667 mmHg 74%
    11:00 +10°C° 0 mm 3 m/s 667 mmHg 69%
    12:00 +12°C° 0 mm 3 m/s 668 mmHg 65%
    13:00 +12°C° 0 mm 3 m/s 667 mmHg 64%
    14:00 +12°C° 0 mm 3 m/s 667 mmHg 63%
    15:00 +12°C° 0 mm 3 m/s 667 mmHg 61%
    16:00 +12°C° 0 mm 4 m/s 667 mmHg 63%
    17:00 +12°C° 0 mm 4 m/s 666 mmHg 64%
    18:00 +12°C° 0 mm 4 m/s 666 mmHg 65%
    19:00 +11°C° 0 mm 3 m/s 666 mmHg 68%
    20:00 +10°C° 0 mm 3 m/s 666 mmHg 71%
    21:00 +9°C° 0 mm 2 m/s 666 mmHg 73%
    22:00 +9°C° 0 mm 2 m/s 666 mmHg 72%
    23:00 +8°C° 0 mm 2 m/s 666 mmHg 71%

    Mâine, 23 Aprilie, Marţi

    Timp Temperatura Precipitaţii Vânt Presiune Umiditate
    00:00 +8°C° 0 mm 2 m/s 666 mmHg 70%
    01:00 +8°C° 0 mm 2 m/s 666 mmHg 70%
    02:00 +8°C° 0 mm 2 m/s 665 mmHg 70%
    03:00 +8°C° 0 mm 2 m/s 665 mmHg 70%
    04:00 +8°C° 0 mm 2 m/s 665 mmHg 73%
    05:00 +8°C° 0 mm 2 m/s 665 mmHg 77%
    06:00 +8°C° 0 mm 2 m/s 664 mmHg 80%
    07:00 +8°C° 1 mm 3 m/s 665 mmHg 81%
    08:00 +9°C° 1 mm 3 m/s 665 mmHg 81%
    09:00 +9°C° 1 mm 3 m/s 666 mmHg 82%
    10:00 +9°C° 1.6 mm 3 m/s 666 mmHg 79%
    11:00 +8°C° 1.6 mm 3 m/s 667 mmHg 76%
    12:00 +7°C° 1.6 mm 4 m/s 667 mmHg 73%
    13:00 +8°C° 0 mm 5 m/s 667 mmHg 64%
    14:00 +9°C° 0 mm 6 m/s 667 mmHg 56%
    15:00 +10°C° 0 mm 7 m/s 667 mmHg 47%
    16:00 +9°C° 0 mm 7 m/s 667 mmHg 49%
    17:00 +8°C° 0 mm 7 m/s 667 mmHg 52%
    18:00 +6°C° 0 mm 7 m/s 667 mmHg 55%
    19:00 +5°C° 0 mm 6 m/s 668 mmHg 61%
    20:00 +5°C° 0 mm 5 m/s 668 mmHg 68%
    21:00 +4°C° 0 mm 4 m/s 669 mmHg 75%
    22:00 +4°C° 0 mm 4 m/s 669 mmHg 77%
    23:00 +3°C° 0 mm 3 m/s 669 mmHg 79%

    Poimâine, 24 Aprilie, Miercuri

    Timp Temperatura Precipitaţii Vânt Presiune Umiditate
    00:00 +3°C° 0 mm 3 m/s 669 mmHg 82%
    01:00 +2°C° 0 mm 3 m/s 669 mmHg 82%
    02:00 +2°C° 0 mm 3 m/s 670 mmHg 82%
    03:00 +3°C° 0 mm 2 m/s 670 mmHg 82%
    04:00 +3°C° 0 mm 2 m/s 670 mmHg 79%
    05:00 +3°C° 0 mm 2 m/s 670 mmHg 76%
    06:00 +3°C° 0 mm 2 m/s 671 mmHg 73%
    07:00 +5°C° 0 mm 2 m/s 671 mmHg 66%
    08:00 +8°C° 0 mm 3 m/s 672 mmHg 59%
    09:00 +10°C° 0 mm 3 m/s 673 mmHg 52%
    10:00 +11°C° 0 mm 4 m/s 673 mmHg 50%
    11:00 +12°C° 0 mm 4 m/s 674 mmHg 48%
    12:00 +14°C° 0 mm 4 m/s 674 mmHg 45%
    13:00 +14°C° 0 mm 4 m/s 674 mmHg 46%
    14:00 +14°C° 0 mm 4 m/s 674 mmHg 47%
    15:00 +14°C° 0 mm 4 m/s 674 mmHg 48%
    16:00 +14°C° 0 mm 4 m/s 674 mmHg 51%
    17:00 +13°C° 0 mm 4 m/s 674 mmHg 55%
    18:00 +12°C° 0 mm 4 m/s 673 mmHg 58%
    19:00 +11°C° 0 mm 3 m/s 674 mmHg 65%
    20:00 +10°C° 0 mm 3 m/s 674 mmHg 71%
    21:00 +9°C° 0 mm 2 m/s 674 mmHg 77%
    22:00 +8°C° 0 mm 2 m/s 674 mmHg 79%
    23:00 +8°C° 0 mm 2 m/s 674 mmHg 81%

    25 Aprilie, Joi

    Timp Temperatura Precipitaţii Vânt Presiune Umiditate
    00:00 +8°C° 0 mm 2 m/s 674 mmHg 83%
    01:00 +8°C° 0 mm 2 m/s 674 mmHg 80%
    02:00 +8°C° 0 mm 2 m/s 674 mmHg 77%
    03:00 +8°C° 0 mm 2 m/s 674 mmHg 74%
    04:00 +8°C° 0 mm 2 m/s 674 mmHg 74%
    05:00 +8°C° 0 mm 2 m/s 674 mmHg 74%
    06:00 +9°C° 0 mm 2 m/s 674 mmHg 74%
    07:00 +10°C° 0 mm 3 m/s 675 mmHg 70%
    08:00 +12°C° 0 mm 4 m/s 675 mmHg 65%
    09:00 +14°C° 0 mm 5 m/s 676 mmHg 61%
    10:00 +15°C° 0 mm 5 m/s 676 mmHg 58%
    11:00 +16°C° 0 mm 5 m/s 677 mmHg 55%
    12:00 +16°C° 0 mm 6 m/s 677 mmHg 52%
    13:00 +16°C° 0.1 mm 6 m/s 677 mmHg 55%
    14:00 +15°C° 0.1 mm 6 m/s 677 mmHg 59%
    15:00 +15°C° 0.1 mm 6 m/s 677 mmHg 62%
    16:00 +14°C° 0 mm 6 m/s 677 mmHg 63%
    17:00 +13°C° 0 mm 6 m/s 677 mmHg 65%
    18:00 +13°C° 0 mm 5 m/s 677 mmHg 66%
    19:00 +11°C° 0 mm 4 m/s 677 mmHg 72%
    20:00 +10°C° 0 mm 3 m/s 677 mmHg 78%
    21:00 +8°C° 0 mm 3 m/s 678 mmHg 84%
    22:00 +8°C° 0 mm 2 m/s 678 mmHg 84%
    23:00 +7°C° 0 mm 2 m/s 678 mmHg 84%

    26 Aprilie, Vineri

    Timp Temperatura Precipitaţii Vânt Presiune Umiditate
    00:00 +8°C° 0 mm 1 m/s 678 mmHg 84%
    01:00 +7°C° 0 mm 1 m/s 678 mmHg 86%
    02:00 +7°C° 0 mm 1 m/s 678 mmHg 87%
    03:00 +5°C° 0 mm 0 m/s 678 mmHg 88%
    04:00 +5°C° 0 mm 0 m/s 679 mmHg 89%
    05:00 +6°C° 0 mm 0 m/s 679 mmHg 89%
    06:00 +6°C° 0 mm 0 m/s 679 mmHg 89%
    07:00 +9°C° 0 mm 1 m/s 680 mmHg 79%
    08:00 +11°C° 0 mm 1 m/s 681 mmHg 69%
    09:00 +13°C° 0 mm 1 m/s 682 mmHg 59%
    10:00 +14°C° 0 mm 1 m/s 682 mmHg 54%
    11:00 +15°C° 0 mm 2 m/s 682 mmHg 48%
    12:00 +17°C° 0 mm 2 m/s 682 mmHg 43%
    13:00 +17°C° 0 mm 2 m/s 682 mmHg 41%
    14:00 +18°C° 0 mm 3 m/s 682 mmHg 40%
    15:00 +18°C° 0 mm 3 m/s 682 mmHg 38%
    16:00 +17°C° 0 mm 3 m/s 682 mmHg 40%
    17:00 +17°C° 0 mm 3 m/s 682 mmHg 43%
    18:00 +16°C° 0 mm 3 m/s 682 mmHg 45%
    19:00 +14°C° 0 mm 2 m/s 682 mmHg 49%
    20:00 +13°C° 0 mm 2 m/s 682 mmHg 53%
    21:00 +11°C° 0 mm 1 m/s 683 mmHg 57%
    22:00 +11°C° 0 mm 1 m/s 682 mmHg 59%
    23:00 +10°C° 0 mm 1 m/s 682 mmHg 60%

    27 Aprilie, Sâmbătă

    Timp Temperatura Precipitaţii Vânt Presiune Umiditate
    00:00 +10°C° 0 mm 1 m/s 682 mmHg 61%
    01:00 +9°C° 0 mm 1 m/s 682 mmHg 63%
    02:00 +9°C° 0 mm 1 m/s 682 mmHg 65%
    03:00 +9°C° 0 mm 1 m/s 682 mmHg 66%
    04:00 +9°C° 0 mm 1 m/s 682 mmHg 68%
    05:00 +9°C° 0 mm 1 m/s 682 mmHg 71%
    06:00 +9°C° 0 mm 1 m/s 682 mmHg 73%
    07:00 +12°C° 0 mm 2 m/s 683 mmHg 64%
    08:00 +14°C° 0 mm 2 m/s 684 mmHg 56%
    09:00 +16°C° 0 mm 3 m/s 684 mmHg 47%
    10:00 +17°C° 0 mm 3 m/s 684 mmHg 43%
    11:00 +19°C° 0 mm 3 m/s 685 mmHg 38%
    12:00 +20°C° 0 mm 3 m/s 685 mmHg 33%
    13:00 +20°C° 0 mm 3 m/s 684 mmHg 32%
    14:00 +21°C° 0 mm 3 m/s 684 mmHg 30%
    15:00 +21°C° 0 mm 3 m/s 684 mmHg 29%
    16:00 +21°C° 0 mm 3 m/s 684 mmHg 32%
    17:00 +20°C° 0 mm 3 m/s 683 mmHg 35%
    18:00 +19°C° 0 mm 3 m/s 683 mmHg 38%
    19:00 +17°C° 0 mm 3 m/s 683 mmHg 42%
    20:00 +14°C° 0 mm 3 m/s 683 mmHg 47%
    21:00 +13°C° 0 mm 2 m/s 683 mmHg 51%
    22:00 +13°C° 0 mm 2 m/s 683 mmHg 54%
    23:00 +12°C° 0 mm 2 m/s 683 mmHg 56%
    Arată mai mult